This is the latest recevied weather packets stored in our database for station/object KC9MWQ-13. If no packets are shown the sender has not sent any weather packets the latest 10 day(s).
| Time | Temp. | Humidity | Pressure | Rain* | Wind** | Luminosity | Snow |
|---|---|---|---|---|---|---|---|
| 1777927806 | 24.44° C | 58% | 1004.5 hPa | 0 mm | - | 522 W/m² | - |
| 1777927504 | 23.89° C | 54% | 1004.2 hPa | 0 mm | - | 544 W/m² | - |
| 1777927203 | 23.89° C | 56% | 1004.3 hPa | 0 mm | - | 532 W/m² | - |
| 1777926900 | 24.44° C | 54% | 1004.4 hPa | 0 mm | - | 509 W/m² | - |
| 1777926596 | 24.44° C | 57% | 1004.4 hPa | 0 mm | - | 534 W/m² | - |
| 1777926292 | 23.89° C | 59% | 1004.5 hPa | 0 mm | - | 556 W/m² | - |
| 1777925990 | 23.33° C | 58% | 1004.5 hPa | 0 mm | - | 615 W/m² | - |
| 1777925687 | 23.89° C | 58% | 1004.3 hPa | 0 mm | - | 299 W/m² | - |
| 1777925384 | 23.89° C | 57% | 1004.3 hPa | 0 mm | - | 602 W/m² | - |
| 1777925081 | 23.89° C | 57% | 1004.5 hPa | 0 mm | - | 729 W/m² | - |
| 1777924777 | 23.89° C | 58% | 1004.6 hPa | 0 mm | - | 472 W/m² | - |
| 1777924473 | 23.89° C | 59% | 1004.6 hPa | 0 mm | - | 647 W/m² | - |
| 1777924170 | 23.89° C | 57% | 1004.8 hPa | 0 mm | - | 695 W/m² | - |
| 1777923866 | 23.89° C | 58% | 1004.6 hPa | 0 mm | - | 547 W/m² | - |
| 1777923562 | 23.89° C | 58% | 1004.5 hPa | 0 mm | - | 579 W/m² | - |
| 1777923260 | 22.78° C | 61% | 1004.9 hPa | 0 mm | - | 562 W/m² | - |
| 1777922958 | 23.33° C | 57% | 1004.9 hPa | 0 mm | - | 292 W/m² | - |
| 1777922655 | 23.89° C | 56% | 1004.5 hPa | 0 mm | - | 255 W/m² | - |
| 1777922354 | 23.89° C | 58% | 1004.7 hPa | 0 mm | - | 700 W/m² | - |
| 1777922051 | 23.33° C | 59% | 1004.9 hPa | 0 mm | - | 872 W/m² | - |
| 1777921746 | 22.78° C | 58% | 1004.8 hPa | 0 mm | - | 346 W/m² | - |
| 1777921442 | 22.78° C | 59% | 1004.9 hPa | 0 mm | - | 253 W/m² | - |
| 1777921139 | 23.33° C | 59% | 1005 hPa | 0 mm | - | 275 W/m² | - |
| 1777920837 | 24.44° C | 55% | 1004.9 hPa | 0 mm | - | 177 W/m² | - |
| 1777920533 | 25° C | 55% | 1004.9 hPa | 0 mm | - | 750 W/m² | - |
* Rain latest hour (hover to see other rain measurements)
** Current wind speed in m/s (hover to see current wind gust speed)